1278547230095,0.528882
1278547290095,0.525687
1278547350095,0.528988
1278547410095,0.524890
1278547470095,0.526719
1278547530095,0.525183
1278547590095,0.526291
1278547650095,0.530030
1278547710095,0.522290
1278547770095,0.521117
1278547830095,0.518889
1278547890095,0.522008
1278547950095,0.522118
1278548010095,0.520341
1278548070095,0.523759
1278548130095,0.521438
1278548190095,0.516648
1278548250095,0.511522
1278548310095,0.519913
1278548370095,0.511703
1278548430095,0.513944
1278548490095,0.517834
1278548550095,0.521216
1278548610095,0.517369
1278548670095,0.519532
1278548730095,0.520336
1278548790095,0.522456
1278548850095,0.518482
1278548910095,0.515099
1278548970095,0.522430
1278549030095,0.525974
1278549090095,0.515888
1278549150095,0.523638
1278549210095,0.528559
1278549270095,0.519450
1278549330095,0.519283
1278549390095,0.519804
1278549450095,0.544194
1278549510095,0.521415
1278549570095,0.519522
1278549630095,0.517716
1278549690095,0.518486
1278549750095,0.512305
1278549810095,0.513074
1278549870095,0.516167
1278549930095,0.522350
1278549990095,0.516253
1278550050095,0.512772
1278550110095,0.520354
1278550170095,0.518280
1278550230095,0.515056
1278550290095,0.517007
1278550350095,0.525848
1278550410095,0.510445
1278550470095,0.523386
1278550530095,0.521462
1278550590095,0.517842
1278550650095,0.522754
1278550710095,0.522716
1278550770095,0.515235
1278550830105,0.521673
1278550890105,0.513326
1278550950105,0.516069
1278551010105,0.524614
1278551070105,0.519817
1278551130105,0.522447
1278551190105,0.523817
1278551250105,0.519998
1278551310105,0.525979
1278551370105,0.522742
1278551430105,0.522116
1278551490105,0.525891
1278551550105,0.521477
1278551610105,0.521723
1278551670105,0.522478
1278551730105,0.529067
1278551790105,0.521661
1278551850105,0.518062
1278551910105,0.527657
1278551970105,0.525177
1278552030105,0.517933
1278552090105,0.519513
1278552150105,0.523045
1278552210105,0.526168
1278552270105,0.529467
1278552330105,0.528576
1278552390105,0.533661
1278552450105,0.538514
1278552510105,0.542748
1278552570105,0.541885
1278552630105,0.545765
1278552690105,0.545612
1278552750105,0.533654
1278552810105,0.544382
1278552870105,0.542194
1278552930105,0.538713
1278552990105,0.532496
1278553050105,0.535991
1278553110105,0.526704
1278553170105,0.534190
1278553230105,0.530556
1278553290105,0.535697
1278553350105,0.531627
1278553410105,0.532266
1278553470105,0.532469
1278553530105,0.531901
1278553590105,0.532412
1278553650105,0.536638
1278553710105,0.540848
1278553770105,0.532416
1278553830105,0.537881
1278553890105,0.534968
1278553950105,0.530838
1278554010105,0.533125
1278554070105,0.539424
1278554130105,0.536919
1278554190105,0.535944
1278554250105,0.533331
1278554310105,0.531721
1278554370105,0.529325
1278554430114,0.531913
1278554490114,0.533347
1278554550114,0.534773
1278554610114,0.532630
1278554670114,0.529392
1278554730114,0.530466
1278554790114,0.531562
1278554850114,0.530513
1278554910114,0.524768
1278554970114,0.529327
1278555030114,0.524194
1278555090114,0.524061
1278555150114,0.523588
1278555210114,0.527853
1278555270114,0.519999
1278555330114,0.524233
1278555390114,0.525785
1278555450114,0.525771
1278555510114,0.522995
1278555570114,0.524056
1278555630114,0.524271
1278555690114,0.526725
1278555750114,0.521116
1278555810114,0.526093
1278555870114,0.522215
1278555930114,0.529568
1278555990114,0.525076
1278556050114,0.524476
1278556110114,0.522122
1278556170114,0.521051
1278556230114,0.527916
1278556290114,0.525592
1278556350114,0.532226
1278556410114,0.520981
1278556470114,0.520850
1278556530114,0.519664
1278556590114,0.525317
1278556650114,0.529251
1278556710114,0.518469
1278556770114,0.516571
1278556830114,0.516132
1278556890114,0.521754
1278556950114,0.522983
1278557010114,0.518612
1278557070114,0.522371
1278557130114,0.522476
1278557190114,0.521087
1278557250114,0.526082
1278557310114,0.524440
1278557370114,0.522212
1278557430114,0.525979
1278557490114,0.531244
1278557550114,0.527267
1278557610114,0.530068
1278557670114,0.529033
1278557730114,0.529077
1278557790114,0.534828
1278557850114,0.535387
1278557910114,0.537732
1278557970114,0.541770
1278558030123,0.546286
1278558090123,0.551990
1278558150123,0.554907
1278558210123,0.550809
1278558270123,0.560541
1278558330123,0.549509
1278558390123,0.550181
1278558450123,0.556859
1278558510123,0.549389
1278558570123,0.551440
1278558630123,0.548962
1278558690123,0.548485
1278558750123,0.543358
1278558810123,0.543904
1278558870123,0.549708
1278558930123,0.546899
1278558990123,0.549818
1278559050123,0.550887
1278559110123,0.547728
1278559170123,0.545990
1278559230123,0.542732
1278559290123,0.540773
1278559350123,0.548579
1278559410123,0.548245
1278559470123,0.547909
1278559530123,0.550248
1278559590123,0.547467
1278559650123,0.550101
1278559710123,0.549521
1278559770123,0.544559
1278559830123,0.557907
1278559890123,0.548411
1278559950123,0.549850
1278560010123,0.545292
1278560070123,0.552180
1278560130123,0.555008
1278560190123,0.553536
1278560250123,0.554284
1278560310123,0.550467
1278560370123,0.550275
1278560430123,0.545278
1278560490123,0.554134
1278560550123,0.549104
1278560610123,0.550871
1278560670123,0.543649
1278560730123,0.544329
1278560790123,0.544137
1278560850123,0.541839
1278560910123,0.544490
1278560970123,0.541652
1278561030123,0.541955
1278561090123,0.542264
1278561150123,0.540054
1278561210123,0.543114
1278561270123,0.542695
1278561330123,0.540696
1278561390123,0.533194
1278561450123,0.536415
1278561510123,0.537894
1278561570123,0.537456
1278561630132,0.540282
1278561690132,0.538018
1278561750132,0.530591
1278561810132,0.535131
1278561870132,0.539361
1278561930132,0.531738
1278561990132,0.535557
1278562050132,0.534126
1278562110132,0.530787
1278562170132,0.529335
1278562230132,0.536547
1278562290132,0.525160
1278562350132,0.528674
1278562410132,0.527430
1278562470132,0.526612
1278562530132,0.531734
1278562590132,0.525918
1278562650132,0.533207
1278562710132,0.523780
1278562770132,0.527670
1278562830132,0.525439
1278562890132,0.524280
1278562950132,0.527486
1278563010132,0.523927
1278563070132,0.527065
1278563130132,0.528639
1278563190132,0.526474
1278563250132,0.524401
1278563310132,0.530623
1278563370132,0.528232
1278563430132,0.525997
1278563490132,0.523515
1278563550132,0.522255
1278563610132,0.525164
1278563670132,0.524673
1278563730132,0.526802
1278563790132,0.520010
1278563850132,0.526424
1278563910132,0.525320
1278563970132,0.523396
1278564030132,0.522517
1278564090132,0.530860
1278564150132,0.529375
1278564210132,0.526157
1278564270132,0.526305
1278564330132,0.523412
1278564390132,0.518875
1278564450132,0.523859
1278564510132,0.517824
1278564570132,0.525129
1278564630132,0.523311
1278564690132,0.524349
1278564750132,0.522830
1278564810132,0.527317
1278564870132,0.527006
1278564930132,0.522656
1278564990132,0.526334
1278565050132,0.526145
1278565110132,0.525484
1278565170132,0.529958
1278565230140,0.524573
1278565290140,0.531024
1278565350140,0.522600
1278565410140,0.522431
1278565470140,0.524163
1278565530140,0.520840
1278565590140,0.521796
1278565650140,0.520863
1278565710140,0.528621
1278565770140,0.524321
1278565830140,0.526447
1278565890140,0.517971
1278565950140,0.519284
1278566010140,0.524589
1278566070140,0.518574
1278566130140,0.518732
1278566190140,0.516391
1278566250140,0.518137
1278566310140,0.524188
1278566370140,0.526517
1278566430140,0.527756
1278566490140,0.520885
1278566550140,0.524050
1278566610140,0.524904
1278566670140,0.525655
1278566730140,0.528472
1278566790140,0.524777
1278566850140,0.521763
1278566910140,0.524041
1278566970140,0.523224
1278567030140,0.523861
1278567090140,0.524359
1278567150140,0.524308
1278567210140,0.526530
1278567270140,0.521474
1278567330140,0.518323
1278567390140,0.521109
1278567450140,0.520965
1278567510140,0.521814
1278567570140,0.525530
1278567630140,0.524107
1278567690140,0.522153
1278567750140,0.527082
1278567810140,0.520128
1278567870140,0.525253
1278567930140,0.519414
1278567990140,0.526484
1278568050140,0.520800
1278568110140,0.522447
1278568170140,0.488006
1278568230140,0.506260
1278568290140,0.522181
1278568350140,0.522009
1278568410140,0.520288
1278568470140,0.525077
1278568530140,0.523372
1278568590140,0.524662
1278568650140,0.520514
1278568710140,0.519034
1278568770140,0.521938
1278568830149,0.522903
1278568890149,0.520383
1278568950149,0.525005
1278569010149,0.521059
1278569070149,0.520774
1278569130149,0.526254
1278569190149,0.520353
1278569250149,0.523762
1278569310149,0.523263
1278569370149,0.520010
1278569430149,0.527322
1278569490149,0.522215
1278569550149,0.522241
1278569610149,0.516813
1278569670149,0.520812
1278569730149,0.521457
1278569790149,0.520869
1278569850149,0.525142
1278569910149,0.521881
1278569970149,0.526023
1278570030149,0.521843
1278570090149,0.523040
1278570150149,0.520890
1278570210149,0.522079
1278570270149,0.521409
1278570330149,0.523243
1278570390149,0.524944
1278570450149,0.523334
1278570510149,0.518581
1278570570149,0.520272
1278570630149,0.524691
1278570690149,0.522461
1278570750149,0.520956
1278570810149,0.522132
1278570870149,0.525762
1278570930149,0.519156
1278570990149,0.523944
1278571050149,0.527917
1278571110149,0.525142
1278571170149,0.515382
1278571230149,0.517674
1278571290149,0.522515
1278571350149,0.521823
1278571410149,0.519253
1278571470149,0.514752
1278571530149,0.522971
1278571590149,0.519406
1278571650149,0.516765
1278571710149,0.527878
1278571770149,0.520918
1278571830149,0.521954
1278571890149,0.527029
1278571950149,0.522308
1278572010149,0.522632
1278572070149,0.521286
1278572130149,0.523990
1278572190149,0.522871
1278572250149,0.518436
1278572310149,0.522095
1278572370149,0.529698
1278572430157,0.522160
1278572490157,0.525451
1278572550157,0.525442
1278572610157,0.517770
1278572670157,0.521652
1278572730157,0.519743
1278572790157,0.517507
1278572850157,0.515379
1278572910157,0.518712
1278572970157,0.526300
1278573030157,0.521256
1278573090157,0.520971
1278573150157,0.527021
1278573210157,0.517277
1278573270157,0.523105
1278573330157,0.513216
1278573390157,0.521197
1278573450157,0.521443
1278573510157,0.520833
1278573570157,0.522012
1278573630157,0.522257
1278573690157,0.519865
1278573750157,0.518763
1278573810157,0.523874
1278573870157,0.521482
1278573930157,0.521036
1278573990157,0.518983
1278574050157,0.521721
1278574110157,0.517095
1278574170157,0.521897
1278574230157,0.522424
1278574290157,0.548918
1278574350157,0.526575
1278574410157,0.526703
1278574470157,0.520967
1278574530157,0.524290
1278574590157,0.527706
1278574650157,0.522128
1278574710157,0.524565
1278574770157,0.527785
1278574830157,0.525552
1278574890157,0.522969
1278574950157,0.525036
1278575010157,0.522348
1278575070157,0.521656
1278575130157,0.526269
1278575190157,0.523091
1278575250157,0.523692
1278575310157,0.524947
1278575370157,0.523326
1278575430157,0.521337
1278575490157,0.524298
1278575550157,0.529444
1278575610157,0.526027
1278575670157,0.525531
1278575730157,0.523282
1278575790157,0.521007
1278575850157,0.522763
1278575910157,0.524098
1278575970157,0.525505
1278576030166,0.518066
1278576090166,0.525781
1278576150166,0.522354
1278576210166,0.526604
1278576270166,0.524789
1278576330166,0.529077
1278576390166,0.519039
1278576450166,0.523137
1278576510166,0.523027
1278576570166,0.533669
1278576630166,0.519192
1278576690166,0.530958
1278576750166,0.522217
1278576810166,0.523642
1278576870166,0.525049
1278576930166,0.526122
1278576990166,0.522614
1278577050166,0.523145
1278577110166,0.518675
1278577170166,0.525391
1278577230166,0.526463
1278577290166,0.526491
1278577350166,0.528921
1278577410166,0.521091
1278577470166,0.525851
1278577530166,0.523767
1278577590166,0.520713
1278577650166,0.519852
1278577710166,0.525577
1278577770166,0.522468
1278577830166,0.528571
1278577890166,0.522616
1278577950166,0.520287
1278578010166,0.527928
1278578070166,0.526571
1278578130166,0.522876
1278578190166,0.526916
1278578250166,0.528630
1278578310166,0.521270
1278578370166,0.521119
1278578430166,0.524233
1278578490166,0.528060
1278578550166,0.524802
1278578610166,0.524184
1278578670166,0.522012
1278578730166,0.521790
1278578790166,0.519641
1278578850166,0.522568
1278578910166,0.517804
1278578970166,0.525808
1278579030166,0.525203
1278579090166,0.523238
1278579150166,0.522511
1278579210166,0.520434
1278579270166,0.526717
1278579330166,0.524439
1278579390166,0.527307
1278579450166,0.520404
1278579510166,0.522289
1278579570166,0.530691
1278579630174,0.525376
1278579690174,0.523348
1278579750174,0.525034
1278579810174,0.520364
1278579870174,0.520797
1278579930174,0.527779
1278579990174,0.519705
1278580050174,0.519207
1278580110174,0.517425
1278580170174,0.521170
1278580230174,0.524268
1278580290174,0.528168
1278580350174,0.528190
1278580410174,0.528199
1278580470174,0.523152
1278580530174,0.529556
1278580590174,0.524922
1278580650174,0.522323
1278580710174,0.525566
1278580770174,0.524855
1278580830174,0.526918
1278580890174,0.524125
1278580950174,0.525706
1278581010174,0.527522
1278581070174,0.522980
1278581130174,0.521332
1278581190174,0.523130
1278581250174,0.529338
1278581310174,0.529350
1278581370174,0.527516
1278581430174,0.524247
1278581490174,0.532026
1278581550174,0.532342
1278581610174,0.528686
1278581670174,0.526198
1278581730174,0.531640
1278581790174,0.530648
1278581850174,0.530932
1278581910174,0.527080
1278581970174,0.528809
1278582030174,0.534096
1278582090174,0.530148
1278582150174,0.522983
1278582210174,0.525523
1278582270174,0.530630
1278582330174,0.521562
1278582390174,0.527196
1278582450174,0.530693
1278582510174,0.530035
1278582570174,0.527872
1278582630174,0.522047
1278582690174,0.522313
1278582750174,0.522845
1278582810174,0.530536
1278582870174,0.524512
1278582930174,0.519722
1278582990174,0.528618
1278583050174,0.522984
1278583110174,0.529239
1278583170174,0.529812
1278583230182,0.523985
1278583290182,0.525693
1278583350182,0.523411
1278583410182,0.521550
1278583470182,0.529610
1278583530182,0.523197
1278583590182,0.524362
1278583650182,0.521241
1278583710182,0.524234
1278583770182,0.526045
1278583830182,0.526175
1278583890182,0.526095
1278583950182,0.527013
1278584010182,0.530772
1278584070182,0.524966
1278584130182,0.524445
1278584190182,0.521931
1278584250182,0.527804
1278584310182,0.520520
1278584370182,0.521983
1278584430182,0.524320
1278584490182,0.524643
1278584550182,0.525786
1278584610182,0.526090
1278584670182,0.527520
1278584730182,0.521496
1278584790182,0.525389
1278584850182,0.526207
1278584910182,0.524115
1278584970182,0.521787
1278585030182,0.527742
1278585090182,0.522699
1278585150182,0.522357
1278585210182,0.521038
1278585270182,0.524734
1278585330182,0.519564
1278585390182,0.532431
1278585450182,0.525907
1278585510182,0.524654
1278585570182,0.523751
1278585630182,0.519326
1278585690182,0.528713
1278585750182,0.527093
1278585810182,0.520764
1278585870182,0.525126
1278585930182,0.529835
1278585990182,0.525620
1278586050182,0.523534
1278586110182,0.521607
1278586170182,0.525706
1278586230182,0.526099
1278586290182,0.524634
1278586350182,0.520389
1278586410182,0.524339
1278586470182,0.521892
1278586530182,0.526310
1278586590182,0.526630
1278586650182,0.526495
1278586710182,0.523434
1278586770182,0.528049
1278586830191,0.524666
1278586890191,0.520790
1278586950191,0.525584
1278587010191,0.526901
1278587070191,0.518325
1278587130191,0.522315
1278587190191,0.525125
1278587250191,0.523039
1278587310191,0.517682
1278587370191,0.524981
1278587430191,0.521877
1278587490191,0.520673
1278587550191,0.527081
1278587610191,0.526539
1278587670191,0.523473
1278587730191,0.522589
1278587790191,0.517357
1278587850191,0.528248
1278587910191,0.523520
1278587970191,0.524707
1278588030191,0.528471
1278588090191,0.529008
1278588150191,0.522520
1278588210191,0.525368
1278588270191,0.528290
1278588330191,0.519946
1278588390191,0.519867
1278588450191,0.527564
1278588510191,0.524975
1278588570191,0.523184
1278588630191,0.533445
1278588690191,0.528676
1278588750191,0.525268
1278588810191,0.524543
1278588870191,0.521233
1278588930191,0.526752
1278588990191,0.528487
1278589050191,0.526575
1278589110191,0.528046
1278589170191,0.528189
1278589230191,0.526406
1278589290191,0.530266
1278589350191,0.525178
1278589410191,0.524761
1278589470191,0.521751
1278589530191,0.524960
1278589590191,0.530514
1278589650191,0.524455
1278589710191,0.523594
1278589770191,0.521839
1278589830191,0.531882
1278589890191,0.525157
1278589950191,0.528218
1278590010191,0.524623
1278590070191,0.527429
1278590130191,0.536190
1278590190191,0.525602
1278590250191,0.526705
1278590310191,0.525716
1278590370191,0.529826
1278590430199,0.529851
1278590490199,0.527613
1278590550199,0.521937
1278590610199,0.528636
1278590670199,0.529629
1278590730199,0.533451
1278590790199,0.523297
1278590850199,0.520036
1278590910199,0.524295
1278590970199,0.524074
1278591030199,0.526704
1278591090199,0.528746
1278591150199,0.528739
1278591210199,0.529247
1278591270199,0.533928
1278591330199,0.534148
1278591390199,0.529111
1278591450199,0.530437
1278591510199,0.525896
1278591570199,0.526892
1278591630199,0.526729
1278591690199,0.523286
1278591750199,0.525744
1278591810199,0.527459
1278591870199,0.518355
1278591930199,0.532871
1278591990199,0.526312
1278592050199,0.529937
1278592110199,0.526551
1278592170199,0.523458
1278592230199,0.528141
1278592290199,0.525866
1278592350199,0.521849
1278592410199,0.525427
1278592470199,0.533691
1278592530199,0.534652
1278592590199,0.526983
1278592650199,0.533574
1278592710199,0.528187
1278592770199,0.529712
1278592830199,0.525288
1278592890199,0.520102
1278592950199,0.531504
1278593010199,0.529976
1278593070199,0.528307
1278593130199,0.531494
1278593190199,0.528142
1278593250199,0.524930
1278593310199,0.528171
1278593370199,0.519942
1278593430199,0.524196
1278593490199,0.519369
1278593550199,0.523817
1278593610199,0.524153
1278593670199,0.522907
1278593730199,0.536664
1278593790199,0.530594
1278593850199,0.529688
1278593910199,0.526465
1278593970199,0.522170
1278594030208,0.532967
1278594090208,0.520311
1278594150208,0.525919
1278594210208,0.529048
1278594270208,0.522604
1278594330208,0.521952
1278594390208,0.524825
1278594450208,0.528207
1278594510208,0.527130
1278594570208,0.526284
1278594630208,0.526559
1278594690208,0.528346
1278594750208,0.574968
1278594810208,0.525622
1278594870208,0.531190
1278594930208,0.519900
1278594990208,0.526618
1278595050208,0.529685
1278595110208,0.523195
1278595170208,0.528680
1278595230208,0.527573
1278595290208,0.528096
1278595350208,0.529009
1278595410208,0.530369
1278595470208,0.525834
1278595530208,0.526543
1278595590208,0.527385
1278595650208,0.525931
1278595710208,0.532139
1278595770208,0.521126
1278595830208,0.522298
1278595890208,0.526766
1278595950208,0.530638
1278596010208,0.525874
1278596070208,0.524191
1278596130208,0.524143
1278596190208,0.524878
1278596250208,0.527169
1278596310208,0.524897
1278596370208,0.525682
1278596430208,0.519788
1278596490208,0.522881
1278596550208,0.524669
1278596610208,0.523660
1278596670208,0.522009
1278596730208,0.524576
1278596790208,0.527187
1278596850208,0.531847
1278596910208,0.527979
1278596970208,0.524464
1278597030208,0.527156
1278597090208,0.526785
1278597150208,0.529754
1278597210208,0.528450
1278597270208,0.525056
1278597330208,0.530250
1278597390208,0.522900
1278597450208,0.520031
1278597510208,0.524404
1278597570208,0.526305
1278597630216,0.526233
1278597690216,0.531901
1278597750216,0.519367
1278597810216,0.527134
1278597870216,0.527898
1278597930216,0.528391
1278597990216,0.529424
1278598050216,0.528806
1278598110216,0.525107
1278598170216,0.524575
1278598230216,0.525862
1278598290216,0.519550
1278598350216,0.522746
1278598410216,0.521179
1278598470216,0.523763
1278598530216,0.528297
1278598590216,0.530385
1278598650216,0.530307
1278598710216,0.528517
1278598770216,0.527744
1278598830216,0.527181
1278598890216,0.519337
1278598950216,0.525617
1278599010216,0.523744
1278599070216,0.527491
1278599130216,0.524255
1278599190216,0.530244
1278599250216,0.526048
1278599310216,0.521652
1278599370216,0.528089
1278599430216,0.527399
1278599490216,0.523346
1278599550216,0.526031
1278599610216,0.525685
1278599670216,0.533521
1278599730216,0.527626
1278599790216,0.520587
1278599850216,0.530440
1278599910216,0.526695
1278599970216,0.529827
1278600030216,0.529984
1278600090216,0.529461
1278600150216,0.527382
1278600210216,0.524381
1278600270216,0.531716
1278600330216,0.529824
1278600390216,0.531142
1278600450216,0.528219
1278600510216,0.525917
1278600570216,0.532234
1278600630216,0.524813
1278600690216,0.528874
1278600750216,0.526336
1278600810216,0.522196
1278600870216,0.526358
1278600930216,0.529108
1278600990216,0.529347
1278601050216,0.527125
1278601110216,0.532409
1278601170216,0.521715
1278601230225,0.529814
1278601290225,0.528984
1278601350225,0.523899
1278601410225,0.529494
1278601470225,0.528376
1278601530225,0.526563
1278601590225,0.525745
1278601650225,0.535686
1278601710225,0.528177
1278601770225,0.526664
1278601830225,0.533435
1278601890225,0.532484
1278601950225,0.532303
1278602010225,0.528873
1278602070225,0.533988
1278602130225,0.531407
1278602190225,0.532234
1278602250225,0.531182
1278602310225,0.529872
1278602370225,0.529388
1278602430225,0.531494
1278602490225,0.531493
1278602550225,0.529224
1278602610225,0.538885
1278602670225,0.525964
1278602730225,0.525956
1278602790225,0.525494
1278602850225,0.529997
1278602910225,0.532486
1278602970225,0.535566
1278603030225,0.531382
1278603090225,0.532577
1278603150225,0.527547
1278603210225,0.527054
1278603270225,0.529969
1278603330225,0.527113
1278603390225,0.531128
1278603450225,0.533469
1278603510225,0.525270
1278603570225,0.532890
1278603630225,0.537130
1278603690225,0.530443
1278603750225,0.533908
1278603810225,0.533152
1278603870225,0.531784
1278603930225,0.533266
1278603990225,0.534631
1278604050225,0.530292
1278604110225,0.534958
1278604170225,0.532116
1278604230225,0.528421
1278604290225,0.530691
1278604350225,0.531359
1278604410225,0.528953
1278604470225,0.530736
1278604530225,0.529795
1278604590225,0.526656
1278604650225,0.527389
1278604710225,0.527287
1278604770225,0.528832
1278604830234,0.524987
1278604890234,0.529274
1278604950234,0.531134
1278605010234,0.528623
1278605070234,0.526535
1278605130234,0.530222
1278605190234,0.530147
1278605250234,0.531527
1278605310234,0.529202
1278605370234,0.532438
1278605430234,0.523102
1278605490234,0.527327
1278605550234,0.526972
1278605610234,0.526177
1278605670234,0.525982
1278605730234,0.527044
1278605790234,0.528821
1278605850234,0.527798
1278605910234,0.531599
1278605970234,0.526932
1278606030234,0.527624
1278606090234,0.527125
1278606150234,0.523600
1278606210234,0.526323
1278606270234,0.530590
1278606330234,0.529219
1278606390234,0.533328
1278606450234,0.532270
1278606510234,0.528485
1278606570234,0.537029
1278606630234,0.529454
1278606690234,0.538988
1278606750234,0.528287
1278606810234,0.533399
1278606870234,0.531991
1278606930234,0.540152
1278606990234,0.527641
1278607050234,0.526430
1278607110234,0.537175
1278607170234,0.531498
1278607230234,0.531626
1278607290234,0.529449
1278607350234,0.532883
1278607410234,0.530452
1278607470234,0.534041
1278607530234,0.533844
1278607590234,0.527904
1278607650234,0.531338
1278607710234,0.539835
1278607770234,0.534891
1278607830234,0.532381
1278607890234,0.535843
1278607950234,0.532250
1278608010234,0.538748
1278608070234,0.536374
1278608130234,0.537176
1278608190234,0.536347
1278608250234,0.533780
1278608310234,0.537773
1278608370234,0.531130
1278608430243,0.532449
1278608490243,0.532344
1278608550243,0.532943
1278608610243,0.535242
1278608670243,0.533987
1278608730243,0.532607
1278608790243,0.534229
1278608850243,0.529872
1278608910243,0.539724
1278608970243,0.535334
1278609030243,0.537996
1278609090243,0.534756
1278609150243,0.536990
1278609210243,0.539259
1278609270243,0.534752
1278609330243,0.533387
1278609390243,0.535886
1278609450243,0.539656
1278609510243,0.535803
1278609570243,0.533818
1278609630243,0.538161
1278609690243,0.536469
1278609750243,0.538131